Date,PrixMin_Nord,PrixMax_Nord,PrixMoyen_Nord,PrixMin_Centre,PrixMax_Centre,PrixMoyen_Centre,PrixMin_Sud,PrixMax_Sud,PrixMoyen_Sud,Prix_Moyen
2022-12-23,4400,4600,4492.9,4500,4800,4650.0,4600,4800,4720.0,4559.9
2022-12-22,4500,4700,4578.6,4600,4700,4625.0,4600,4700,4670.0,4601.9
2022-12-21,4700,4800,4737.5,4600,4800,4700.0,4700,4700,4700.0,4723.9
2022-12-20,4900,5000,4907.1,4600,4800,4716.7,4800,4800,4800.0,4850.1
2022-12-19,5000,5100,5028.6,4800,4800,4800.0,4800,4900,4850.0,4952.9
2022-12-18,4900,5100,5014.3,4800,4800,4800.0,4900,4900,4900.0,4951.0
2022-12-17,4900,5100,5014.3,4800,4800,4800.0,5000,5000,5000.0,4965.3
2022-12-16,4900,5100,5035.7,4800,4900,4833.3,5000,5100,5045.0,4992.8
2022-12-15,5000,5100,5057.1,4900,5000,4916.7,5000,5100,5075.0,5029.0
2022-12-14,5000,5200,5057.1,5000,5000,5000.0,5100,5200,5150.0,5058.0
2022-12-13,5100,5300,5178.6,5000,5000,5000.0,5200,5300,5275.0,5153.4
2022-12-12,5100,5300,5214.3,5200,5200,5200.0,5300,5400,5360.0,5232.1
2022-12-11,5100,5300,5207.1,4900,5000,4983.3,5300,5400,5350.0,5178.7
2022-12-10,5100,5300,5221.4,4900,5000,4983.3,5300,5400,5325.0,5184.2
2022-12-09,4900,5300,5087.5,4800,4900,4833.3,5000,5000,5000.0,5019.3
2022-12-08,4700,4800,4750.0,4600,4800,4733.3,5000,5000,5000.0,4782.3
2022-12-07,4800,4900,4825.0,4800,5000,4933.3,5000,5000,5000.0,4873.9
2022-12-06,4900,5000,4975.0,4900,5000,4975.0,5000,5100,5033.3,4983.4
2022-12-05,5200,5400,5342.9,5100,5300,5200.0,5100,5200,5175.0,5287.5
2022-12-04,5300,5500,5428.6,5100,5300,5200.0,5200,5500,5345.0,5366.5
2022-12-03,5300,5500,5385.7,5100,5300,5200.0,5200,5300,5275.0,5329.2
2022-12-02,5100,5300,5225.0,4900,5000,4950.0,4500,4700,4670.0,5085.0
2022-12-01,4600,4800,4700.0,4300,4500,4433.3,4300,4500,4380.0,4595.6
2022-11-30,4400,4600,4514.3,4200,4300,4283.3,4300,4400,4330.0,4437.2
2022-11-29,4400,4600,4528.6,4300,4400,4383.3,4500,4500,4500.0,4492.7
2022-11-28,4500,4600,4535.7,4500,4500,4500.0,4500,4500,4500.0,4522.8
2022-11-27,4500,4600,4550.0,4500,4500,4500.0,4500,4600,4525.0,4535.5
2022-11-26,4300,4500,4421.4,4500,4500,4500.0,4500,4600,4550.0,4457.1
2022-11-25,4300,4500,4371.4,4500,4600,4533.3,4500,4700,4655.0,4447.6
2022-11-24,4000,4300,4141.7,4500,4600,4550.0,4500,4600,4560.0,4291.2
2022-11-23,3800,3900,3850.0,4000,4200,4083.3,4100,4300,4220.0,3954.3
2022-11-22,3700,3800,3757.1,3900,4000,3987.5,4000,4100,4050.0,3849.7
2022-11-21,3800,3900,3857.1,3900,4000,3962.5,4000,4300,4090.0,3913.7
2022-11-20,3900,4000,3942.9,3900,4000,3962.5,4000,4300,4090.0,3968.3
2022-11-19,3900,4000,3950.0,3900,4000,3962.5,4200,4300,4240.0,3994.5
2022-11-18,3800,4100,3971.4,4100,4200,4183.3,4200,4300,4290.0,4063.6
2022-11-17,3600,3800,3685.7,3800,4000,3833.3,3800,3900,3830.0,3738.8
2022-11-16,3600,3700,3657.1,3700,3800,3750.0,3800,3800,3800.0,3698.0
2022-11-15,3800,3900,3821.4,3700,3800,3712.5,3800,3800,3800.0,3794.5
2022-11-14,3800,3900,3871.4,3800,3800,3800.0,3800,3800,3800.0,3845.5
2022-11-13,3800,3900,3871.4,3900,4000,3962.5,4000,4000,4000.0,3909.8
2022-11-12,3800,3900,3864.3,4000,4000,4000.0,4000,4000,4000.0,3913.5
2022-11-11,3800,4000,3900.0,3800,4000,3866.7,4000,4000,4000.0,3907.1
2022-11-10,3800,4000,3914.3,3900,4000,3975.0,4000,4000,4000.0,3939.9
2022-11-09,3900,4000,3971.4,4000,4000,4000.0,4000,4100,4065.0,3991.1
2022-11-08,4000,4200,4142.9,4000,4100,4050.0,4200,4300,4250.0,4138.0
2022-11-07,4300,4500,4414.3,4300,4500,4433.3,4400,4500,4410.0,4417.8
2022-11-06,4300,4500,4378.6,4500,4500,4500.0,4300,4300,4300.0,4393.8
2022-11-05,3900,4400,4071.4,4200,4500,4333.3,4100,4200,4170.0,4142.9
2022-11-04,3900,4100,3978.6,4200,4200,4200.0,4000,4100,4050.0,4037.3
2022-11-03,4000,4100,4028.6,4200,4300,4240.0,4300,4400,4305.0,4114.6
2022-11-02,4400,4500,4450.0,4300,4300,4300.0,4400,4500,4425.0,4413.6
2022-11-01,4500,4700,4607.1,4500,4700,4583.3,4500,4700,4600.0,4600.9
2022-10-31,4500,4700,4635.7,4500,4700,4575.0,4700,4800,4785.0,4643.9
2022-10-30,4500,4700,4607.1,4300,4500,4375.0,4700,4800,4785.0,4581.9
2022-10-29,4300,4700,4492.9,4300,4500,4375.0,4500,4500,4500.0,4468.1
2022-10-28,4300,4500,4400.0,4000,4300,4150.0,4100,4200,4150.0,4309.3
2022-10-27,4300,4500,4371.4,4300,4400,4350.0,4200,4200,4200.0,4342.1
2022-10-26,4400,4500,4471.4,4700,4800,4750.0,4500,4600,4570.0,4546.6
2022-10-25,4700,4900,4842.9,4600,4700,4666.7,4700,4700,4700.0,4783.8
2022-10-24,4900,5000,4964.3,4800,4800,4800.0,4800,4900,4825.0,4908.3
2022-10-23,4900,5000,4964.3,4700,4800,4712.5,4800,4900,4840.0,4891.3
2022-10-22,5000,5100,5028.6,4700,4800,4712.5,4900,5000,4960.0,4949.6
2022-10-21,5000,5200,5121.4,4900,5000,4987.5,5000,5200,5100.0,5089.0
2022-10-20,5300,5400,5350.0,5000,5200,5100.0,5100,5200,5160.0,5268.0
2022-10-19,5400,5500,5435.7,5000,5200,5137.5,5200,5300,5210.0,5338.0
2022-10-18,5400,5500,5450.0,5100,5300,5200.0,5400,5500,5430.0,5392.4
2022-10-17,5300,5600,5492.9,5100,5300,5200.0,5200,5300,5275.0,5397.4
2022-10-16,5300,5600,5492.9,5100,5300,5200.0,5100,5100,5100.0,5372.3
2022-10-15,5200,5500,5407.1,5100,5300,5200.0,5200,5200,5200.0,5332.0
2022-10-14,5000,5200,5114.3,4800,5000,4950.0,5000,5100,5075.0,5072.7
2022-10-13,5000,5200,5100.0,4900,4900,4900.0,4800,4900,4850.0,5020.3
2022-10-12,5000,5400,5221.4,5000,5000,5000.0,4800,4800,4800.0,5112.4
2022-10-11,5300,5400,5357.1,5000,5100,5050.0,4800,4800,4800.0,5209.8
2022-10-10,5300,5400,5350.0,5200,5300,5250.0,4800,5000,4925.0,5267.0
2022-10-09,5400,5500,5435.7,5200,5300,5250.0,5000,5000,5000.0,5332.4
2022-10-08,5400,5500,5435.7,5300,5400,5350.0,5300,5300,5300.0,5397.4
2022-10-07,5400,5500,5450.0,5400,5500,5466.7,5300,5300,5300.0,5432.1
2022-10-06,5700,5800,5750.0,5500,5600,5516.7,5400,5500,5450.0,5655.8
2022-10-05,5900,6100,5971.4,5500,5800,5612.5,5600,5600,5600.0,5839.5
2022-10-04,5700,5900,5800.0,5800,6000,5850.0,5700,5800,5780.0,5808.1
2022-10-03,5800,5900,5842.9,5800,6000,5975.0,6000,6000,6000.0,5894.4
2022-10-02,6000,6300,6085.7,5800,6000,5975.0,6000,6000,6000.0,6049.2
2022-10-01,6000,6400,6150.0,5800,6000,5975.0,6000,6000,6000.0,6090.1
2022-09-30,5000,5500,5314.3,5600,6000,5900.0,5800,6000,5930.0,5531.0
2022-09-29,5000,5300,5150.0,5000,5500,5187.5,6000,6000,6000.0,5280.5
2022-09-28,6200,6400,6292.9,6000,6000,6000.0,6000,6100,6010.0,6188.1
2022-09-27,6800,7000,6878.6,7000,7100,7016.7,7000,7300,7200.0,6955.0
2022-09-26,7400,7500,7450.0,7300,7400,7333.3,7500,7700,7575.0,7442.5
2022-09-25,7600,7800,7650.0,7600,7700,7683.3,7600,7700,7650.0,7657.3
2022-09-24,7600,7800,7707.1,7600,7700,7683.3,7600,7700,7615.0,7688.7
2022-09-23,7600,7800,7714.3,7500,7700,7633.3,7500,7600,7565.0,7675.1
2022-09-22,7500,7800,7700.0,7500,7500,7500.0,7500,7500,7500.0,7627.5
2022-09-21,7500,7800,7678.6,7300,7500,7383.3,7500,7500,7500.0,7588.3
2022-09-20,7300,7500,7428.6,7200,7500,7333.3,7300,7500,7400.0,7403.6
2022-09-19,7000,7500,7300.0,7200,7500,7383.3,7200,7300,7250.0,7311.0
2022-09-18,6800,7300,6964.3,7000,7100,7016.7,7000,7000,7000.0,6980.9
2022-09-17,6700,7000,6878.6,7000,7100,7016.7,6800,7000,6950.0,6919.1
2022-09-16,6500,6700,6564.3,6700,6700,6700.0,6600,6700,6675.0,6609.9
2022-09-15,6400,6500,6450.0,6400,6500,6433.3,6600,6700,6675.0,6478.7
2022-09-14,6400,6500,6464.3,6400,6400,6400.0,6700,6700,6700.0,6484.1
2022-09-13,6400,6500,6450.0,6400,6500,6450.0,6500,6700,6575.0,6468.0
2022-09-12,6500,6600,6521.4,6400,6500,6466.7,6500,6700,6625.0,6524.3
2022-09-11,6400,6500,6471.4,6400,6700,6600.0,6700,6700,6700.0,6532.4
2022-09-10,6500,6700,6578.6,6400,6700,6600.0,6700,6700,6700.0,6600.7
2022-09-09,6400,6600,6507.1,6300,6500,6400.0,6400,6500,6450.0,6475.5
2022-09-08,6300,6500,6362.5,6300,6300,6300.0,6300,6400,6325.0,6343.4
2022-09-07,6200,6300,6264.3,6200,6300,6266.7,6200,6300,6265.0,6264.9
2022-09-06,6200,6300,6275.0,6300,6400,6333.3,6300,6400,6375.0,6302.1
2022-09-05,6200,6300,6250.0,6300,6400,6362.5,6300,6500,6395.0,6295.5
2022-09-04,6200,6300,6250.0,6300,6400,6362.5,6300,6500,6400.0,6296.2
2022-09-03,6200,6300,6250.0,6300,6400,6362.5,6300,6500,6400.0,6296.2
2022-09-02,6200,6300,6242.9,6000,6300,6183.3,6400,6500,6450.0,6259.6
2022-09-01,6100,6200,6171.4,6000,6200,6112.5,6500,6500,6500.0,6205.8
2022-08-31,6100,6200,6175.0,6100,6200,6175.0,6400,6500,6475.0,6218.2
2022-08-30,6100,6200,6175.0,6100,6200,6166.7,6400,6500,6420.0,6208.4
2022-08-29,6000,6300,6192.9,6000,6400,6200.0,6400,6400,6400.0,6224.2
2022-08-28,6000,6200,6092.9,6000,6300,6175.0,6200,6200,6200.0,6126.2
2022-08-27,5800,6200,6000.0,6000,6200,6150.0,5900,6000,5950.0,6025.6
2022-08-26,5800,6000,5966.7,5800,6000,5916.7,5800,6000,5895.0,5945.4
2022-08-25,5800,6200,6000.0,5900,6100,5962.5,6000,6000,6000.0,5991.8
2022-08-24,6000,6200,6114.3,6000,6100,6016.7,6200,6200,6200.0,6105.3
2022-08-23,6000,6200,6100.0,6000,6200,6033.3,6200,6200,6200.0,6099.8
2022-08-22,6000,6300,6150.0,6000,6300,6150.0,6200,6200,6200.0,6157.2
2022-08-21,6000,6500,6207.1,6000,6500,6333.3,6400,6500,6425.0,6266.1
2022-08-20,6000,6500,6192.9,6000,6500,6333.3,6200,6400,6335.0,6244.0
2022-08-19,5800,6000,5925.0,5300,5800,5516.7,5600,5700,5650.0,5796.1
2022-08-18,5400,5800,5600.0,5000,5500,5300.0,5400,5400,5400.0,5505.6
2022-08-17,5300,5500,5400.0,5400,5600,5500.0,5400,5500,5410.0,5423.3
2022-08-16,5400,5600,5457.1,5000,5500,5316.7,5400,5500,5460.0,5426.8
2022-08-15,5400,5600,5457.1,5400,5700,5575.0,5400,5500,5490.0,5487.7
2022-08-14,5300,5500,5421.4,5400,5700,5537.5,5200,5300,5280.0,5426.5
2022-08-13,5200,5400,5292.9,5200,5400,5300.0,5000,5200,5160.0,5275.3
2022-08-12,4800,5000,4921.4,4800,4900,4875.0,5000,5200,5100.0,4937.0
2022-08-11,4700,4900,4821.4,4700,4900,4800.0,4900,5000,4950.0,4835.2
2022-08-10,4700,4900,4821.4,4700,4800,4725.0,4800,4900,4850.0,4804.4
2022-08-09,4700,4900,4783.3,4700,4800,4750.0,4800,4900,4850.0,4785.6
2022-08-08,4600,4700,4650.0,4700,4800,4725.0,4800,4900,4850.0,4695.2
2022-08-07,4500,4700,4571.4,4600,4800,4683.3,4700,4800,4750.0,4621.6
2022-08-06,4500,4700,4571.4,4600,4700,4650.0,4700,4800,4730.0,4611.4
2022-08-05,4500,4600,4557.1,4600,4700,4650.0,4600,4600,4600.0,4583.6
2022-08-04,4600,4800,4680.0,4700,4800,4762.5,4600,4700,4650.0,4693.7
2022-08-03,4700,4900,4810.0,4700,4800,4762.5,4600,4700,4650.0,4776.6
2022-08-02,4800,5000,4920.0,4700,4900,4775.0,4600,4700,4650.0,4849.4
2022-08-01,4900,5000,4950.0,4800,4900,4850.0,4700,4700,4700.0,4892.2
2022-07-31,4900,5000,4950.0,4800,4900,4862.5,4800,4800,4800.0,4909.3
2022-07-30,4900,5000,4950.0,4800,4900,4862.5,4800,4800,4800.0,4909.3
2022-07-29,5000,5100,5050.0,4800,5100,4950.0,4800,5000,4950.0,5013.7
2022-07-28,5000,5200,5100.0,4900,5000,4966.7,4800,5000,4910.0,5043.5
2022-07-27,5000,5200,5125.0,5000,5200,5087.5,4800,4900,4820.0,5072.9
2022-07-26,5000,5200,5100.0,4800,5000,4925.0,4800,4800,4800.0,5018.6
2022-07-25,5000,5200,5080.0,4800,5000,4925.0,4800,4800,4800.0,5005.8
2022-07-24,4800,5200,5000.0,4800,5000,4875.0,4800,4800,4800.0,4943.9
2022-07-23,4600,4900,4770.0,4800,5000,4875.0,4800,4800,4800.0,4797.3
2022-07-22,4600,4800,4740.0,4700,4900,4762.5,4700,4800,4760.0,4747.8
2022-07-21,4700,4800,4750.0,4700,4900,4800.0,4700,4800,4765.0,4763.1
2022-07-20,4700,4800,4733.3,4500,5000,4737.5,4700,4800,4780.0,4741.0
2022-07-19,4400,4500,4450.0,4500,4800,4700.0,4800,4800,4800.0,4555.0
2022-07-18,4200,4400,4307.1,4400,4600,4500.0,4700,4700,4700.0,4405.9
2022-07-17,3900,4200,4007.1,4300,4400,4366.7,4500,4500,4500.0,4156.7
2022-07-16,3900,4000,3957.1,4300,4400,4366.7,4500,4500,4500.0,4124.8
2022-07-15,3800,4000,3878.6,4000,4100,4075.0,4200,4200,4200.0,3967.8
2022-07-14,3800,4000,3892.9,3800,4000,3900.0,4200,4200,4200.0,3938.6
2022-07-13,3800,4000,3892.9,3700,4000,3916.7,4100,4300,4210.0,3943.7
2022-07-12,3800,4000,3885.7,4000,4300,4150.0,4100,4300,4210.0,3990.2
2022-07-11,3700,3900,3814.3,4000,4200,4100.0,4100,4300,4210.0,3933.7
2022-07-10,3700,3900,3814.3,4000,4200,4100.0,4100,4300,4210.0,3933.7
2022-07-09,3700,3900,3814.3,4000,4200,4100.0,4100,4300,4210.0,3933.7
2022-07-08,3700,3900,3814.3,4000,4100,4050.0,4100,4300,4210.0,3922.8
2022-07-07,3800,4000,3878.6,4000,4200,4100.0,4000,4500,4370.0,3997.7
2022-07-06,3800,4000,3871.4,3900,4000,3950.0,4000,4500,4340.0,3956.0
2022-07-05,3800,4000,3870.0,3900,4000,3987.5,4000,4100,4010.0,3915.8
2022-07-04,4100,4300,4178.6,3900,4000,3950.0,4000,4100,4050.0,4110.1
2022-07-03,4000,4400,4192.9,3900,4000,3950.0,4000,4100,4025.0,4115.6
2022-07-02,3800,4400,4085.7,3900,4000,3950.0,4000,4100,4075.0,4054.5
2022-07-01,3800,3900,3842.9,3800,3900,3866.7,4000,4100,4055.0,3878.6
2022-06-30,3800,4000,3885.7,3900,4000,3975.0,3900,4000,3970.0,3917.4
2022-06-29,3900,4100,4014.3,3900,4000,3962.5,3900,4000,3965.0,3995.9
2022-06-28,4200,4300,4228.6,3900,4000,3933.3,3800,4000,3915.0,4118.9
2022-06-27,4200,4400,4314.3,3800,4000,3933.3,3800,4000,3966.7,4180.9
2022-06-26,4000,4300,4157.1,3800,4000,3933.3,3800,4000,3925.0,4074.8
2022-06-25,3900,4200,4071.4,3800,4000,3933.3,3800,4000,3905.0,4017.3
2022-06-24,3900,4100,3990.0,3800,4000,3925.0,3900,4000,3975.0,3973.6
2022-06-23,4000,4200,4092.9,3800,3800,3800.0,3800,4100,3975.0,4011.8
2022-06-22,4000,4200,4100.0,3800,3900,3850.0,3700,3900,3810.0,4003.6
2022-06-21,4000,4300,4170.0,4000,4000,4000.0,3800,3800,3800.0,4079.6
2022-06-20,4200,4300,4221.4,4000,4100,4050.0,4000,4200,4090.0,4165.0
2022-06-19,4200,4300,4222.7,4000,4100,4050.0,4100,4200,4150.0,4174.5
2022-06-18,4200,4300,4221.4,4000,4100,4050.0,4000,4100,4050.0,4159.3
2022-06-17,4000,4300,4128.6,3800,4000,3825.0,3800,4000,3875.0,4025.7
2022-06-16,3800,4100,3942.9,3800,4000,3900.0,4000,4100,4050.0,3948.9
2022-06-15,4100,4400,4185.7,4300,4400,4325.0,3900,4300,4170.0,4213.9
2022-06-14,4100,4400,4260.7,4000,4500,4350.0,4300,4500,4450.0,4307.5
2022-06-13,4000,4400,4307.1,4000,4500,4250.0,4200,4400,4335.0,4298.6
2022-06-12,4000,4200,4116.7,4000,4300,4162.5,4200,4300,4240.0,4144.4
2022-06-11,3800,4100,3966.7,4000,4300,4162.5,3800,3900,3850.0,3992.7
2022-06-10,3800,3900,3850.0,3500,3700,3533.3,3700,3800,3710.0,3760.6
2022-06-09,3800,4100,3900.0,3700,3800,3775.0,3700,3900,3810.0,3859.7
2022-06-08,3900,4100,3950.0,3800,3900,3833.3,3800,4000,3900.0,3917.3
2022-06-07,3900,4100,3957.1,3800,4000,3916.7,3800,4000,3935.0,3945.1
2022-06-06,3800,4000,3914.3,3500,4000,3866.7,3800,4000,3955.0,3909.7
2022-06-05,3000,3400,3192.9,3000,3000,3000.0,3200,3300,3260.0,3160.3
2022-06-04,2800,3200,2942.9,3000,3000,3000.0,3200,3300,3240.0,2998.1
2022-06-03,2800,3100,2928.6,2900,3100,2966.7,3000,3300,3120.0,2964.4
2022-06-02,2900,3200,3028.6,2900,3000,2933.3,2900,3200,3136.7,3023.3
2022-06-01,3100,3400,3200.0,3000,3300,3166.7,3100,3400,3290.0,3205.7
2022-05-31,3400,3500,3450.0,3300,3500,3412.5,3400,3500,3480.0,3446.1
2022-05-30,3400,3500,3450.0,3100,3600,3387.5,3400,3500,3485.0,3441.4
2022-05-29,3300,3500,3400.0,3000,3500,3300.0,3400,3500,3450.0,3385.3
2022-05-28,3000,3200,3100.0,3000,3400,3250.0,3200,3300,3250.0,3154.4
2022-05-27,2900,3200,3014.3,2800,3100,3000.0,3200,3500,3310.0,3053.7
2022-05-26,2800,3200,2950.0,2700,2800,2775.0,2900,3000,2980.0,2916.0
2022-05-25,2900,3200,2985.7,2800,2800,2800.0,3000,3100,3020.0,2950.0
2022-05-24,3000,3200,3046.4,2800,3000,2950.0,3000,3100,3080.0,3030.2
2022-05-23,3000,3200,3035.7,2900,3000,2933.3,3000,3100,3080.0,3019.7
2022-05-22,3000,3200,3033.3,2900,3000,2933.3,3000,3100,3070.0,3016.7
2022-05-21,3000,3200,3033.3,2900,3000,2966.7,3000,3100,3050.0,3021.1
2022-05-20,2800,3000,2885.7,3000,3100,3033.3,3000,3100,3035.0,2939.5
2022-05-19,2900,3100,2985.7,2900,3000,2933.3,2900,3100,3000.0,2976.3
2022-05-18,2800,3100,2935.7,2600,3000,2937.5,2900,3100,3015.0,2947.5
2022-05-17,3000,3300,3100.0,3000,3200,3075.0,3000,3200,3120.0,3097.4
2022-05-16,3100,3500,3271.4,3000,3500,3212.5,3100,3200,3185.0,3246.1
2022-05-15,3300,3500,3342.9,3200,3500,3287.5,3300,3300,3300.0,3324.6
2022-05-14,3400,3600,3500.0,3200,3500,3362.5,3300,3400,3325.0,3444.7
2022-05-13,3500,3700,3592.9,3700,4000,3837.5,3500,3600,3575.0,3643.8
2022-05-12,3500,3800,3635.7,3800,4000,3912.5,3800,3900,3870.0,3730.0
2022-05-11,3700,4000,3850.0,3800,4000,3875.0,3900,4000,3985.0,3874.9
2022-05-10,3800,4100,3992.9,3500,4000,3800.0,4000,4000,4000.0,3951.7
2022-05-09,3700,3900,3814.3,3500,3700,3600.0,3500,3800,3590.0,3735.1
2022-05-08,3700,3900,3766.7,3500,3700,3600.0,3400,3500,3475.0,3688.2
2022-05-07,3500,3700,3566.7,3500,3700,3600.0,3300,3500,3425.0,3553.6
2022-05-06,3500,3700,3557.1,3500,3700,3566.7,3500,3500,3500.0,3551.0
2022-05-05,3300,3600,3471.4,3400,3500,3450.0,3500,3600,3575.0,3481.6
2022-05-04,3300,3600,3471.4,3400,3500,3462.5,3600,3700,3625.0,3491.6
2022-05-03,3300,3600,3471.4,3400,3500,3412.5,3500,3600,3535.0,3467.7
2022-05-02,3300,3600,3471.4,3300,3400,3350.0,3200,3500,3375.0,3431.0
2022-05-01,3300,3600,3471.4,3300,3400,3350.0,3200,3300,3250.0,3413.0
2022-04-30,3300,3500,3366.7,3300,3400,3325.0,3200,3300,3250.0,3340.8
2022-04-29,3300,3500,3400.0,3200,3400,3300.0,3300,3300,3300.0,3363.7
2022-04-28,3200,3500,3350.0,3300,3500,3383.3,3200,3300,3260.0,3344.3
2022-04-27,3200,3500,3350.0,3300,3400,3316.7,3200,3300,3240.0,3326.9
2022-04-26,3200,3500,3350.0,3200,3300,3266.7,3300,3300,3300.0,3324.6
2022-04-25,3300,3600,3450.0,3300,3300,3300.0,3300,3300,3300.0,3395.6
2022-04-24,3300,3500,3450.0,3300,3300,3300.0,3300,3300,3300.0,3395.6
2022-04-23,3300,3500,3450.0,3300,3300,3300.0,3300,3400,3325.0,3399.2
2022-04-22,3500,3500,3500.0,3300,3500,3425.0,3300,3500,3436.0,3474.4
2022-04-21,3500,3600,3514.3,3400,3500,3450.0,3300,3500,3450.0,3491.0
2022-04-20,3500,3600,3528.6,3400,3500,3450.0,3300,3400,3370.0,3488.6
2022-04-19,3500,3600,3528.6,3400,3600,3512.5,3400,3600,3490.0,3519.5
2022-04-18,3500,3600,3514.3,3500,3700,3616.7,3500,3600,3580.0,3546.1
2022-04-17,3500,3600,3535.7,3600,3700,3650.0,3500,3700,3590.0,3568.5
2022-04-16,3500,3600,3535.7,3600,3700,3650.0,3600,3700,3615.0,3572.1
2022-04-15,3600,3700,3635.7,3600,3700,3675.0,3600,3700,3675.0,3650.0
2022-04-14,3500,3700,3614.3,3600,3700,3675.0,3600,3800,3690.0,3638.5
2022-04-13,3600,3700,3650.0,3700,3700,3700.0,3700,3800,3750.0,3675.3
2022-04-12,3700,3800,3778.6,3600,3800,3700.0,3700,3800,3783.3,3762.1
2022-04-11,3700,3800,3778.6,3500,3700,3650.0,3700,3800,3775.0,3749.9
2022-04-10,3700,3900,3792.9,3800,3800,3800.0,3800,3900,3825.0,3799.0
2022-04-09,3800,3900,3835.7,3800,3800,3800.0,3800,3900,3840.0,3828.5
2022-04-08,3800,3900,3850.0,3800,3800,3800.0,3900,4000,3920.0,3849.1
2022-04-07,3900,4000,3921.4,3900,3900,3900.0,3900,4000,3940.0,3919.4
2022-04-06,3900,4100,3964.3,3900,4100,3950.0,3900,4000,3965.0,3961.3
2022-04-05,3900,4100,4035.7,3900,4100,4000.0,3900,4000,3963.3,4017.5
2022-04-04,4000,4200,4121.4,3900,4000,3950.0,3900,4000,3925.0,4055.7
2022-04-03,4000,4200,4064.3,3800,4000,3912.5,3900,4000,3930.0,4011.8
2022-04-02,3900,4200,4007.1,3800,4000,3912.5,3900,4000,3927.5,3975.0
2022-04-01,3800,4000,3900.0,3900,4000,3933.3,3900,4000,3935.0,3912.3
2022-03-31,3800,4000,3900.0,3900,4200,4066.7,3900,4000,3935.0,3941.5
2022-03-30,3800,3900,3857.1,3800,4000,3912.5,3900,4000,3950.0,3882.6
2022-03-29,3800,4000,3907.1,3800,3900,3850.0,3900,4000,3980.0,3905.1
2022-03-28,3800,4000,3907.1,3800,4000,3875.0,3900,4000,3950.0,3906.3
2022-03-27,3800,4000,3907.1,3800,4000,3875.0,3900,4000,3980.0,3910.6
2022-03-26,3900,4000,3935.7,3800,4000,3883.3,3900,4000,3980.0,3930.6
2022-03-25,3900,4000,3950.0,3900,4000,3950.0,3900,4000,3980.0,3954.3
2022-03-24,3900,4100,3970.0,3900,4000,3950.0,3900,4000,3980.0,3967.1
2022-03-23,4000,4200,4090.0,3900,3900,3900.0,3900,4000,3980.0,4032.6
2022-03-22,4000,4200,4130.0,3900,4000,3950.0,3900,4000,3980.0,4069.0
2022-03-21,4000,4300,4178.6,3900,4000,3925.0,3900,4000,4080.0,4108.9
2022-03-20,4000,4200,4135.7,3900,4000,3950.0,3900,4000,3980.0,4072.7
2022-03-19,4000,4200,4078.6,3900,4000,3937.5,3900,4000,3980.0,4033.5
2022-03-18,4000,4200,4110.0,3900,4000,3966.7,3900,4100,3980.0,4059.9
2022-03-17,4000,4200,4110.0,3900,4000,3987.5,3900,4100,3985.0,4065.2
2022-03-16,4000,4200,4114.3,4000,4000,4000.0,3900,4000,3980.0,4070.0
2022-03-15,4000,4200,4121.4,4000,4100,4037.5,4000,4100,4010.0,4087.0
2022-03-14,4000,4100,4035.7,4000,4000,4000.0,4000,4000,4000.0,4022.8
2022-03-13,4000,4100,4050.0,4000,4000,4000.0,4000,4100,4015.0,4034.0
2022-03-12,4000,4100,4035.7,4000,4000,4000.0,4000,4100,4025.0,4026.4
2022-03-11,4000,4100,4050.0,4000,4000,4000.0,3900,4100,4015.0,4034.0
2022-03-10,4000,4100,4050.0,4000,4000,4000.0,3900,4000,3990.0,4030.4
2022-03-09,4000,4100,4064.3,4000,4000,4000.0,3900,4000,3990.0,4039.5
2022-03-08,4000,4100,4050.0,3800,4000,3940.0,3900,4000,3998.9,4018.6
2022-03-07,3800,4000,3900.0,3900,4000,3962.5,4000,4100,4020.0,3930.9
2022-03-06,3800,4000,3857.1,3900,4000,3962.5,4000,4100,4010.0,3902.2
2022-03-05,3800,4000,3857.1,3900,4000,3962.5,4000,4000,4000.0,3900.7
2022-03-04,3800,4000,3857.1,3900,4000,3933.3,3900,4000,3950.0,3887.2
2022-03-03,3900,4100,3985.7,3900,3900,3900.0,3900,4000,3975.0,3965.4
2022-03-02,3900,4100,4007.1,4000,4000,4000.0,3900,4000,3975.0,4001.0
2022-03-01,4000,4200,4042.9,3900,4000,3962.5,4000,4000,4000.0,4019.1
2022-02-28,4000,4200,4100.0,3900,4000,3975.0,4000,4100,4025.0,4061.9
2022-02-27,4000,4100,4042.9,3900,4000,3975.0,4000,4100,4035.0,4026.9
2022-02-26,4000,4100,4050.0,3900,4000,3987.5,4000,4100,4040.0,4034.9
2022-02-25,4000,4200,4057.1,3900,4000,3950.0,4000,4100,4035.0,4030.5
2022-02-24,4100,4200,4164.3,4000,4100,4062.5,4000,4000,4000.0,4118.4
2022-02-23,4100,4300,4185.7,3900,4100,3987.5,3900,4000,3980.0,4112.8
2022-02-22,4200,4300,4250.0,3900,4100,3962.5,3900,4000,3950.0,4143.9
2022-02-21,4200,4400,4300.0,3900,4200,4050.0,3900,4000,3980.0,4199.3
2022-02-20,4200,4400,4307.1,3900,4200,4025.0,4000,4000,4000.0,4201.2
2022-02-19,4200,4300,4242.9,3900,4200,4025.0,4000,4000,4000.0,4160.3
2022-02-18,4100,4400,4250.0,4000,4000,4000.0,4000,4000,4000.0,4159.3
2022-02-17,4000,4200,4114.3,4000,4000,4000.0,4000,4100,4010.0,4074.3
2022-02-16,4100,4300,4187.5,4000,4100,4012.5,4000,4100,4015.0,4124.4
2022-02-15,4000,4200,4100.0,4000,4100,4037.5,4000,4100,4025.0,4075.5
2022-02-14,4000,4300,4121.4,4000,4100,4033.3,4000,4100,4075.0,4095.5
2022-02-13,4000,4100,4066.7,4000,4000,4000.0,4000,4100,4065.0,4051.8
2022-02-12,4000,4100,4066.7,4000,4000,4000.0,4000,4100,4065.0,4051.8
2022-02-11,4100,4200,4135.7,3900,4000,3987.5,4000,4100,4075.0,4094.6
2022-02-10,4100,4200,4150.0,4000,4000,4000.0,3900,4100,4015.0,4097.8
2022-02-09,4100,4200,4150.0,4000,4000,4000.0,4000,4100,4035.0,4100.6
2022-02-08,4000,4100,4028.6,4000,4000,4000.0,4000,4100,4030.0,4022.5
2022-02-07,4000,4100,4042.9,4000,4000,4000.0,4000,4100,4070.0,4037.4
2022-02-06,4000,4100,4042.9,4000,4000,4000.0,4000,4100,4040.0,4033.1
2022-02-05,4000,4100,4057.1,4000,4000,4000.0,4000,4100,4040.0,4042.2
2022-02-04,4000,4200,4064.3,4100,4200,4130.0,4100,4200,4140.0,4089.6
2022-02-03,4000,4200,4064.3,4100,4200,4120.0,4100,4200,4160.0,4090.2
2022-02-02,3900,4100,4021.4,4200,4300,4275.0,4200,4200,4200.0,4102.6
2022-02-01,3900,4100,4021.4,4200,4300,4216.7,4200,4300,4260.0,4098.5
2022-01-31,4000,4200,4050.0,4000,4200,4150.0,4300,4400,4340.0,4113.6
2022-01-30,4200,4200,4200.0,4000,4200,4150.0,4300,4400,4340.0,4209.2
2022-01-29,4200,4300,4250.0,4000,4200,4150.0,4200,4300,4250.0,4228.1
2022-01-28,4000,4300,4192.9,4000,4200,4116.7,4000,4100,4050.0,4155.6
2022-01-27,4000,4300,4200.0,3900,4000,3950.0,4000,4100,4070.0,4126.6
2022-01-26,3900,4300,4128.6,4000,4200,4100.0,4100,4100,4100.0,4118.2
2022-01-25,3900,4100,4007.1,3900,4000,3966.7,4100,4200,4150.0,4018.8
2022-01-24,3900,4100,4021.4,4000,4000,4000.0,4000,4100,4060.0,4022.3
2022-01-23,3900,4100,3978.6,4000,4000,4000.0,4000,4000,4000.0,3986.3
2022-01-22,3900,4100,3978.6,4000,4000,4000.0,4200,4200,4200.0,4015.1
2022-01-21,3900,4100,4021.4,4000,4100,4075.0,4200,4300,4265.0,4068.2
2022-01-20,3900,4100,4050.0,4100,4200,4137.5,4200,4400,4275.0,4101.5
2022-01-19,4000,4200,4092.9,4200,4300,4283.3,4300,4400,4375.0,4175.1
2022-01-18,4000,4200,4085.7,4100,4300,4237.5,4400,4500,4445.0,4170.6